ECMWFNIL_850_thetae_030.txt.gz
Theta_e
302 302 302 302 301 301 301 301 302 302 303 303 303 303 302 302 301 301 300 300 301 301 301 301 301 300 300 300 299 299 298 298 299 299 299 300 299 299 298 297 296 296
301 301 301 301 301 301 300 300 300 300 301 301 302 302 302 302 302 301 301 300 300 300 301 300 300 300 300 300 299 299 298 298 298 298 298 298 298 298 298 297 296 296
299 300 300 300 300 300 300 299 298 299 299 299 300 300 301 301 301 301 301 301 301 300 300 300 300 300 300 300 299 299 298 298 298 297 297 297 297 297 297 297 297 296
297 298 298 299 299 299 299 298 298 298 297 297 298 298 299 299 300 300 300 301 301 301 301 300 300 300 299 299 299 299 299 298 298 297 297 297 297 297 297 296 296 296
293 294 294 295 296 297 297 298 298 298 297 297 296 296 297 297 298 298 299 299 300 301 301 301 301 300 299 299 299 299 299 298 298 297 297 297 297 297 296 296 296 296
290 291 291 291 292 293 294 295 296 296 296 296 296 296 296 296 296 297 297 297 298 299 300 300 301 301 300 300 299 299 299 298 298 297 296 296 296 297 297 296 296 296
289 289 289 289 289 289 290 290 291 292 293 294 294 295 295 295 295 295 296 296 296 297 297 298 299 300 301 301 300 300 299 298 298 297 297 296 296 296 296 296 296 296
288 288 288 288 288 288 288 288 288 288 289 289 290 291 291 292 293 293 294 294 295 295 296 296 297 298 299 299 300 300 299 299 298 297 297 296 296 296 296 296 296 296
287 287 287 287 287 287 287 287 287 287 287 287 287 287 288 288 289 289 290 291 292 293 294 294 295 296 296 297 297 298 298 298 297 296 296 296 296 296 296 296 295 295
287 287 287 287 287 287 287 287 287 287 287 287 286 287 287 287 287 287 288 288 289 289 290 291 292 293 294 295 295 296 297 297 297 296 296 296 296 296 296 296 296 295
287 287 287 287 287 287 287 287 287 287 287 287 287 286 286 286 286 287 287 287 287 287 287 288 288 289 291 292 293 294 295 296 296 296 296 296 295 295 295 295 296 295
288 287 287 287 287 287 287 287 287 287 287 287 287 287 287 286 286 286 286 286 286 286 287 287 287 287 287 288 290 291 292 293 294 295 295 296 296 296 295 295 295 295
287 287 287 287 287 287 287 287 287 287 287 287 287 287 287 286 286 286 286 286 286 286 286 286 286 286 286 286 287 287 288 290 291 292 293 294 295 295 296 295 295 294
287 287 287 287 287 287 287 287 287 287 287 287 287 287 287 287 286 286 286 286 286 286 286 286 286 286 286 286 286 286 286 287 288 289 290 291 292 293 294 295 295 295
288 288 287 287 287 287 287 287 287 287 287 287 287 287 287 287 287 287 286 286 286 286 286 286 286 286 286 286 285 286 286 286 286 286 287 288 289 290 291 292 293 294
288 288 288 288 288 288 288 287 287 287 287 287 287 287 287 287 287 287 286 286 286 286 286 286 286 286 286 286 285 285 285 285 286 286 286 286 286 287 288 289 290 292
287 287 287 287 287 287 287 287 287 287 287 287 287 287 287 287 287 287 287 287 286 286 286 286 286 286 286 286 286 286 285 285 285 285 285 286 286 286 286 287 287 288
286 286 286 286 286 286 286 286 286 286 286 287 287 287 287 287 287 287 287 287 287 286 286 286 286 286 286 286 286 286 286 285 285 285 285 285 285 285 286 286 286 286
285 285 285 285 285 284 284 284 284 284 285 285 285 285 285 285 286 286 286 286 286 286 286 286 286 286 286 286 286 286 286 285 285 285 285 285 285 285 285 285 286 286
284 283 283 283 283 282 282 282 282 282 282 282 282 283 283 283 284 285 285 285 286 286 286 286 286 286 286 286 285 285 285 285 285 285 285 285 285 285 285 285 285 285
282 282 282 281 281 281 281 280 280 280 280 280 280 280 281 281 282 282 283 284 284 285 285 285 286 286 286 285 285 285 285 285 285 285 285 285 285 285 285 285 285 285
281 280 280 280 280 279 279 279 279 279 279 279 279 279 279 279 279 280 281 281 282 283 283 284 285 285 285 285 285 284 284 284 284 284 285 285 285 285 285 285 285 285
280 279 279 279 279 278 278 278 278 278 278 278 277 277 277 278 278 278 278 279 280 281 282 282 283 284 284 284 284 284 283 283 282 283 284 284 284 285 285 285 285 285
279 279 278 278 278 278 277 277 277 277 277 277 276 276 276 276 276 276 276 277 277 278 279 280 281 283 284 284 284 284 283 282 281 281 282 283 284 284 284 285 285 285
278 278 278 277 277 277 276 276 276 276 275 275 274 274 274 274 274 274 274 274 275 275 276 276 278 280 282 283 283 283 283 282 280 279 280 281 282 283 284 284 284 285
278 277 277 276 276 275 275 275 274 273 273 272 272 272 271 271 271 271 271 272 272 272 273 273 274 276 277 279 279 280 281 280 279 278 278 279 280 281 282 283 283 284

ECMWFNIL_850_thetae_033.txt.gz
Theta_e
299 299 299 298 298 298 297 297 297 297 297 298 298 298 298 298 299 299 300 300 300 301 301 301 301 300 299 299 299 299 299 299 299 299 299 299 299 300 300 300 299 299
297 297 297 297 297 297 296 296 296 296 296 296 297 297 297 297 297 297 298 298 299 299 300 300 301 301 301 300 299 299 299 299 299 299 298 298 298 298 299 299 299 299
294 294 294 294 294 295 295 294 294 294 294 294 295 295 295 295 295 296 296 296 297 297 298 298 299 300 301 301 301 300 300 299 299 299 298 298 298 298 298 298 298 298
292 292 292 292 292 292 292 292 292 293 292 293 293 293 293 293 293 293 293 294 294 295 296 296 297 297 298 299 300 301 301 300 300 299 299 299 298 298 298 297 297 297
290 290 290 290 290 290 290 290 291 291 291 291 291 291 291 292 292 292 292 291 291 292 292 293 294 295 296 297 298 299 300 300 300 299 298 299 298 298 297 297 297 297
288 289 289 289 289 289 289 289 289 289 289 290 290 290 290 290 290 290 290 291 290 290 289 290 290 291 292 294 295 296 297 298 299 299 298 299 298 298 297 297 296 296
288 288 288 288 288 288 288 288 288 288 288 288 288 288 289 289 289 289 289 289 289 289 289 288 288 288 289 290 291 292 293 295 296 297 298 298 298 298 298 297 296 296
287 287 287 287 287 287 287 287 287 287 287 287 287 287 287 287 288 288 288 288 288 289 289 288 288 288 288 288 288 288 289 291 292 294 295 296 297 297 298 297 296 296
287 287 287 287 287 287 287 287 287 287 287 287 287 287 287 287 287 287 287 287 287 287 288 288 288 288 288 288 287 287 287 288 288 289 291 293 294 295 296 296 296 296
287 287 287 287 287 287 287 287 287 287 287 287 287 287 287 287 287 287 287 287 287 287 287 287 287 287 288 288 287 287 287 287 287 287 288 289 290 291 293 294 295 295
288 288 288 288 288 288 288 288 288 288 288 288 288 288 288 288 288 288 288 288 287 287 287 287 287 287 287 287 287 287 287 286 286 286 286 287 287 288 289 290 292 293
288 288 288 288 288 288 288 288 288 288 288 288 288 288 288 288 288 288 288 288 288 288 288 288 287 287 287 287 287 287 287 287 286 286 286 286 286 286 287 287 288 289
288 288 288 288 288 288 288 288 288 288 288 288 288 288 287 287 287 287 287 287 287 287 288 288 288 288 288 287 287 287 287 286 286 286 286 286 286 286 286 286 286 287
288 288 288 288 288 288 288 288 288 287 287 287 287 287 287 287 286 286 286 286 286 287 287 287 287 287 288 288 288 287 287 287 287 286 286 286 286 286 286 286 286 286
287 287 287 287 287 287 287 287 287 287 286 286 286 286 286 286 285 285 286 286 286 286 286 286 286 286 286 287 287 287 287 287 287 287 287 286 286 286 286 286 285 285
287 287 287 287 286 286 286 286 285 285 285 285 285 285 285 285 285 285 285 285 285 285 285 285 285 285 285 285 285 285 286 286 286 286 287 286 286 286 286 286 286 285
286 285 285 285 285 284 284 284 284 284 284 284 284 284 284 284 284 284 284 284 284 284 285 285 285 285 285 285 284 284 284 284 284 284 285 285 285 286 286 286 286 286
284 284 284 284 283 283 283 282 282 282 282 282 282 282 283 283 283 283 283 283 283 283 284 284 284 284 285 284 284 284 283 283 282 282 282 283 283 284 285 285 286 286
283 283 283 283 282 282 281 281 281 281 281 281 281 281 282 282 282 282 282 282 282 282 283 283 283 284 284 284 284 284 283 283 282 281 281 281 282 282 283 284 284 285
283 282 282 282 281 281 281 281 281 280 280 280 280 280 280 280 280 280 281 281 281 281 281 281 282 283 283 283 283 282 282 281 280 280 280 280 281 281 281 282 283 283
282 281 281 281 281 281 280 280 280 280 279 279 279 278 278 278 278 278 278 279 279 279 278 279 281 281 281 280 279 279 279 278 278 278 279 279 279 280 280 281 281 282
281 281 281 280 280 280 280 279 279 279 278 278 277 278 277 277 277 277 276 277 277 276 276 276 278 279 278 277 276 276 276 276 276 276 277 277 278 278 279 279 280 280
281 280 280 280 280 279 279 279 278 278 278 277 276 277 276 276 275 275 275 274 274 274 274 274 275 276 275 274 274 274 274 274 274 275 275 275 276 276 277 277 278 278
280 280 279 279 279 279 279 278 278 277 277 276 275 275 274 274 273 273 273 273 272 272 272 272 273 273 272 272 272 272 272 272 272 272 273 273 273 274 275 275 276 277
279 279 279 279 279 279 278 278 277 277 276 275 273 273 272 272 272 272 272 272 271 271 271 270 271 272 271 271 271 271 270 270 271 271 271 271 272 272 273 273 274 275
279 279 279 279 278 278 277 277 276 276 274 273 272 272 272 271 271 271 271 271 271 271 271 270 270 271 270 270 270 269 269 269 270 270 270 271 271 271 271 271 272 273

ECMWFNIL_850_thetae_036.txt.gz
Theta_e
294 294 293 293 293 293 292 292 292 291 291 291 291 291 291 292 292 293 293 294 294 294 295 296 297 297 298 298 299 299 299 299 299 299 299 299 299 299 299 300 300 300
292 292 291 291 291 290 290 290 289 289 289 289 289 289 289 289 289 289 290 290 290 291 291 292 293 294 295 295 296 297 298 298 299 298 298 298 298 298 298 298 299 299
291 291 291 290 290 290 289 289 289 289 289 289 289 289 288 288 288 288 288 288 288 288 289 289 289 289 290 291 292 293 294 296 297 297 298 298 298 298 298 298 298 298
290 290 290 290 289 289 289 289 289 289 289 288 288 288 288 288 288 288 288 288 288 288 288 288 288 287 288 288 289 289 290 291 292 294 295 296 297 297 297 297 297 297
289 289 289 289 289 289 289 289 289 289 289 288 288 288 288 288 288 288 288 288 288 288 288 288 288 287 287 287 287 287 288 288 289 290 291 292 294 295 296 296 296 296
289 289 289 288 289 288 289 289 289 289 289 289 289 288 288 288 288 288 288 288 288 288 288 288 288 288 288 287 287 287 286 287 287 287 288 289 290 291 292 293 294 295
288 288 288 288 288 288 288 288 288 288 288 288 288 288 288 289 289 289 289 288 288 288 288 288 288 288 288 287 287 287 287 287 286 286 286 287 287 288 288 289 290 292
288 288 288 288 288 288 288 288 288 288 288 288 288 288 288 288 288 288 288 288 288 289 289 288 288 288 288 288 288 288 287 287 287 287 286 286 286 286 287 287 288 288
288 288 288 288 288 288 288 288 288 288 288 288 288 287 287 287 287 287 287 287 288 288 288 288 288 288 288 288 288 288 288 288 287 287 287 287 287 286 286 286 286 287
288 288 288 288 288 288 288 288 287 287 287 287 287 287 287 287 287 287 286 287 287 287 287 287 287 287 288 288 288 288 288 288 288 288 287 287 287 287 287 287 286 286
288 288 288 288 288 288 287 287 287 287 287 286 286 286 286 286 286 286 286 286 286 286 286 286 286 286 286 287 287 287 287 287 287 288 287 287 287 287 287 287 287 287
288 288 288 288 287 287 287 287 287 286 286 286 286 286 286 286 286 286 285 285 285 285 285 285 285 285 286 286 286 286 286 286 286 287 287 287 287 287 287 287 287 287
288 288 288 287 287 287 287 286 286 286 286 286 285 285 285 285 285 285 285 285 285 285 285 285 285 285 285 285 285 285 284 285 285 285 286 286 286 286 286 286 286 287
288 288 288 287 287 286 286 286 286 285 285 285 285 285 285 284 284 284 284 284 284 284 284 284 284 284 284 284 283 283 283 283 283 284 284 284 285 285 286 286 286 286
288 288 287 287 286 286 285 285 285 284 284 284 284 284 284 284 284 284 284 284 284 284 284 284 284 284 284 283 282 282 281 281 281 282 282 283 283 284 285 285 285 286
287 287 287 286 285 285 284 284 284 284 284 284 284 284 284 284 284 284 284 284 284 284 284 284 284 284 284 283 281 280 280 280 280 280 280 280 281 282 283 284 284 285
287 287 286 285 284 284 284 284 283 283 283 283 284 284 284 284 284 284 284 283 283 283 283 283 283 283 282 281 280 279 279 279 279 279 279 279 279 280 281 282 283 283
286 285 284 284 284 283 283 283 283 283 283 283 284 284 284 284 283 283 283 283 282 282 282 282 282 281 280 279 279 279 278 277 277 277 278 278 279 279 279 279 280 281
284 284 283 283 283 283 283 283 283 283 283 283 283 283 283 283 283 282 282 282 281 281 281 281 280 279 278 277 277 277 276 275 276 276 277 277 277 278 278 278 278 278
283 283 283 283 282 282 283 283 283 283 283 283 283 283 283 282 282 282 281 280 279 279 279 279 278 276 275 275 275 274 274 274 274 275 275 276 276 276 277 277 277 277
283 283 282 282 282 283 283 283 282 282 282 282 282 282 282 282 281 281 280 279 278 276 276 276 275 274 274 274 273 273 273 272 272 273 274 274 275 276 276 276 276 276
282 282 282 282 282 283 282 282 282 282 282 281 281 281 281 281 280 279 278 277 276 275 274 274 274 273 272 272 272 272 272 271 271 272 272 273 274 274 274 274 275 275
282 282 282 282 282 282 282 281 281 281 281 280 281 281 280 279 278 277 276 275 274 274 273 273 273 272 272 272 271 271 271 271 271 271 271 272 273 273 273 273 273 273
282 282 282 282 282 281 281 281 281 281 280 280 280 280 279 278 276 275 274 273 273 273 272 272 272 272 271 271 271 271 271 270 270 270 270 270 271 271 271 271 271 271
281 281 281 281 281 281 281 281 280 280 280 279 279 278 277 276 275 274 274 273 273 272 272 272 272 272 271 271 271 271 270 269 268 268 268 269 269 269 269 269 269 270
281 281 281 281 280 280 280 280 280 279 279 279 278 277 276 275 274 273 273 273 273 272 272 272 272 271 271 271 270 270 270 269 268 268 268 268 268 268 268 268 269 270

ECMWFNIL_850_thetae_042.txt.gz
Theta_e
295 294 294 294 293 293 292 292 292 292 292 291 291 291 290 290 290 290 290 289 289 289 289 289 289 289 289 289 289 289 289 289 289 289 289 288 288 288 289 288 288 288
294 293 293 292 292 292 292 292 291 291 291 291 291 291 291 291 291 290 290 290 290 290 289 289 289 289 289 288 288 288 288 288 288 288 288 288 288 288 288 288 288 288
292 292 292 292 291 291 291 291 291 290 290 290 290 290 290 290 290 290 290 290 290 290 290 289 289 289 288 288 288 288 288 288 288 288 288 288 288 288 288 288 288 288
291 291 291 290 290 290 290 290 290 290 290 289 289 289 289 289 289 289 289 289 289 289 289 289 289 288 288 288 288 288 288 288 288 288 288 288 288 288 288 288 288 287
290 290 290 290 290 290 290 290 289 289 289 289 289 289 288 288 288 288 288 288 287 287 287 287 287 287 287 287 287 287 287 288 287 288 288 288 288 288 287 287 287 287
290 290 290 290 290 290 289 289 289 289 288 288 288 288 288 287 287 287 287 287 287 286 286 286 286 287 287 287 287 287 287 287 287 287 287 287 287 287 287 287 287 287
290 290 290 289 289 289 289 288 288 288 288 288 287 287 287 287 287 287 286 286 286 286 286 287 286 287 287 287 287 287 287 287 287 287 287 287 287 287 287 287 287 287
290 289 289 289 289 289 288 288 288 288 288 287 287 287 287 287 286 286 286 286 286 286 286 286 286 286 286 287 287 287 287 287 287 287 287 287 287 287 287 287 287 287
289 289 289 289 289 289 288 288 288 288 288 287 287 287 287 286 286 286 286 286 286 286 286 286 286 286 286 286 286 286 286 286 286 286 286 286 286 286 287 286 286 287
290 289 289 289 289 289 288 288 288 288 287 287 287 287 287 286 286 286 285 286 286 286 286 285 285 285 285 286 286 286 286 286 286 286 286 286 286 286 286 286 286 286
289 289 289 289 289 288 288 288 288 287 287 287 287 286 286 286 285 285 285 285 285 285 285 285 285 285 285 285 285 285 285 285 285 285 285 285 285 285 285 285 285 285
289 289 289 288 288 288 288 288 287 287 287 287 286 286 286 286 285 285 285 285 285 285 285 285 285 285 285 285 285 285 285 285 285 285 285 285 285 285 285 285 284 284
289 289 289 288 288 288 288 288 287 287 287 287 286 286 286 285 285 285 285 285 285 284 284 285 285 285 284 284 284 284 284 284 284 284 284 284 284 284 284 284 283 282
289 289 289 288 288 288 288 288 287 287 287 286 286 285 285 284 284 284 284 284 284 284 284 285 284 284 284 284 284 284 284 284 284 284 284 284 284 283 283 283 282 281
289 289 288 288 288 288 288 287 287 287 287 286 285 285 284 284 284 284 284 284 284 284 284 284 284 284 284 284 284 284 284 283 283 283 283 283 283 282 282 281 281 280
289 288 288 288 288 288 287 287 287 287 286 285 285 284 284 284 284 284 284 284 284 284 284 284 284 284 284 283 283 283 283 283 282 282 282 281 281 281 280 279 279 279
288 288 288 288 288 287 287 287 286 286 285 285 285 284 284 283 283 283 284 284 284 284 284 284 284 284 283 283 283 282 282 281 281 281 280 280 279 278 278 278 277 277
288 288 288 288 288 287 287 286 286 285 285 284 284 283 283 283 283 283 284 284 284 284 284 284 284 283 283 283 283 282 281 280 280 279 279 278 277 277 276 276 276 276
288 288 288 288 287 287 287 286 285 285 284 284 284 283 283 283 283 283 284 284 284 284 284 284 283 283 283 283 282 281 280 279 279 278 278 277 276 276 276 275 275 275
288 288 288 288 287 287 286 285 285 284 284 283 283 283 283 283 283 283 283 284 283 283 283 284 283 283 283 282 282 281 279 278 278 278 277 277 276 276 275 275 275 275
288 288 288 287 287 287 286 285 284 284 283 283 283 283 283 283 283 283 283 283 283 283 283 283 283 282 282 282 281 280 279 278 278 277 277 276 276 275 275 275 274 274
287 287 287 287 287 286 285 284 284 283 283 282 282 282 283 283 283 283 283 283 283 283 283 283 282 282 281 281 280 279 278 278 277 277 276 276 275 275 275 274 274 273
287 287 287 287 286 286 285 284 283 283 282 282 282 282 283 283 283 283 283 283 283 282 282 282 282 281 281 280 279 278 277 277 277 276 276 275 275 275 274 273 272 272
287 287 287 287 286 285 284 283 283 282 282 282 282 282 282 283 283 283 282 282 282 282 281 281 282 281 280 279 278 277 277 277 276 276 276 275 275 274 274 273 272 272
287 287 287 286 286 285 283 283 282 282 282 282 282 282 282 282 282 282 282 282 282 281 281 280 281 280 279 278 278 277 277 277 276 276 276 276 275 273 273 272 272 272
287 287 286 286 285 284 283 282 282 282 281 281 282 282 282 282 282 282 282 282 281 281 280 280 280 280 279 278 277 277 277 277 276 276 276 275 274 272 272 271 271 271

ECMWFNIL_850_thetae_045.txt.gz
Theta_e
294 294 294 294 294 294 293 293 293 293 292 292 292 292 291 291 291 291 290 290 290 290 290 289 289 289 289 289 288 288 288 288 288 288 288 287 288 288 288 288 287 287
294 294 293 293 293 293 293 293 292 292 292 292 292 291 291 291 291 290 290 290 290 290 289 289 289 289 289 289 288 288 288 288 288 287 288 287 288 288 288 288 288 288
293 292 292 292 292 292 291 291 291 291 291 290 290 290 290 290 290 289 289 289 289 289 289 289 288 288 288 288 287 287 287 287 287 287 287 287 288 288 288 288 288 287
292 291 291 291 291 291 290 290 290 290 290 290 289 289 289 289 288 288 288 288 288 288 287 287 287 287 287 287 287 287 287 287 287 287 287 287 287 287 287 287 287 287
291 291 290 290 290 290 290 289 289 289 289 289 289 288 288 288 288 288 287 287 287 287 287 287 286 287 286 287 287 287 287 287 287 287 287 287 287 287 287 287 287 287
290 290 290 290 290 289 289 289 289 289 289 288 288 288 288 288 287 287 287 287 287 286 286 286 286 286 286 286 286 287 287 287 287 287 287 287 287 287 287 287 287 287
290 290 290 290 289 289 289 289 289 289 288 288 288 288 288 287 287 287 287 286 286 286 286 286 286 286 286 286 286 286 286 286 286 286 286 286 286 286 286 286 286 286
290 290 289 289 289 289 289 289 289 289 288 288 288 288 288 287 287 287 287 286 286 286 286 286 286 286 286 286 286 286 286 286 286 286 286 286 286 286 286 285 285 285
290 289 289 289 289 290 289 289 289 288 288 288 288 288 287 287 287 287 287 286 286 286 286 285 285 286 285 285 285 286 285 285 285 285 285 285 285 285 285 285 285 285
289 289 289 289 289 289 289 288 288 288 288 288 288 287 287 287 287 287 287 286 286 285 285 285 285 285 285 285 285 285 285 285 285 285 285 285 285 284 284 284 284 284
290 290 289 289 289 289 288 288 288 288 288 288 288 287 287 287 287 287 286 286 285 285 285 285 285 285 285 285 285 285 285 285 285 285 284 284 284 284 284 284 284 284
290 289 289 289 289 288 288 288 288 288 288 288 288 287 287 287 286 286 286 285 285 284 284 284 284 284 284 284 284 285 284 284 284 284 284 284 284 284 283 283 283 283
289 289 289 289 289 288 288 288 288 288 288 288 287 287 287 286 286 286 285 285 284 284 284 284 284 284 284 284 284 284 284 284 284 284 284 284 284 283 283 283 283 283
289 289 289 289 288 288 288 288 288 288 288 287 287 287 287 286 286 285 285 284 284 284 284 284 284 284 284 284 284 284 284 284 284 284 284 283 283 283 283 283 282 282
289 289 289 289 288 288 288 288 287 287 287 287 287 287 286 286 285 285 284 284 284 284 284 284 284 284 284 284 284 284 284 284 284 284 283 283 283 282 282 282 282 282
289 289 289 288 288 288 288 287 287 287 287 287 287 286 286 285 285 284 284 283 283 283 283 283 283 284 284 284 284 284 284 284 283 283 283 283 282 282 282 281 281 281
289 289 288 288 288 288 288 287 287 287 287 287 286 286 286 285 285 284 283 283 283 283 283 283 283 283 283 283 283 283 283 283 283 283 282 282 282 281 281 280 280 280
289 288 288 288 288 288 287 287 287 287 287 286 286 286 285 285 284 284 283 283 283 283 283 283 283 283 283 283 283 283 283 283 282 282 282 281 281 280 280 280 279 279
289 288 288 288 288 287 287 287 287 287 286 286 286 286 285 284 284 283 283 283 283 283 283 283 283 283 283 283 283 283 282 282 282 282 281 281 280 280 279 279 279 278
288 288 288 288 288 287 287 287 287 287 286 286 286 285 285 284 283 283 282 282 283 283 283 283 283 283 283 283 282 282 282 281 281 281 281 280 280 279 279 278 278 278
288 288 288 288 288 287 287 287 287 287 286 286 286 285 284 283 283 283 282 282 282 283 283 283 282 282 282 282 282 282 281 281 281 280 280 280 279 279 278 278 277 277
288 288 288 288 287 287 287 287 287 286 286 286 285 285 284 283 283 282 282 282 282 282 283 283 282 282 282 282 282 281 281 281 280 280 280 279 279 278 278 278 277 277
288 288 288 288 287 287 287 287 287 286 286 286 285 284 283 283 282 282 282 282 282 282 282 282 282 282 282 281 281 281 280 280 280 280 279 279 278 278 278 277 277 277
288 288 288 287 287 287 287 287 287 286 286 285 285 284 283 282 282 282 282 282 282 282 282 282 282 281 281 281 281 280 280 279 279 279 279 278 278 278 277 277 277 277
288 288 288 287 287 287 287 286 286 286 285 285 284 283 282 282 282 282 282 282 282 282 282 282 282 281 281 280 280 280 279 279 279 278 278 278 278 278 277 277 276 275
288 288 287 287 287 287 286 286 286 286 285 285 284 283 282 282 281 281 282 282 281 281 281 281 281 281 280 280 279 279 278 278 278 278 278 278 278 276 275 275 274 274

ECMWFNIL_850_thetae_048.txt.gz
Theta_e
295 295 295 295 295 294 294 293 293 293 293 292 292 292 292 291 291 291 290 290 290 290 290 289 289 289 289 288 288 288 287 287 287 287 287 287 287 287 287 287 287 287
295 295 294 294 294 294 293 293 293 293 292 292 292 292 291 291 291 290 290 290 290 290 289 289 289 289 289 288 288 287 287 287 287 287 287 287 287 287 287 287 287 287
294 294 294 293 293 293 293 292 292 292 291 291 291 290 290 290 290 289 289 289 288 288 288 288 287 287 287 287 287 287 287 287 287 287 287 287 287 287 287 287 287 287
293 293 293 293 293 292 292 291 291 291 290 290 290 289 289 289 288 288 288 287 287 287 287 287 286 286 286 286 286 286 286 286 286 286 286 287 287 287 287 287 287 287
292 292 292 292 291 291 291 291 290 290 290 289 289 289 288 288 288 288 287 287 287 287 286 286 286 286 286 286 286 286 286 286 286 286 286 286 286 286 286 286 286 286
292 291 291 291 290 290 290 290 290 289 289 289 288 288 288 288 288 287 287 287 287 287 287 286 286 286 286 286 286 286 286 286 286 286 286 286 286 286 286 286 286 285
291 290 290 290 290 290 290 289 289 289 289 288 288 288 288 288 288 288 287 287 287 287 287 287 286 286 286 286 286 286 286 286 286 285 285 285 285 285 285 285 285 285
290 290 290 290 289 289 289 289 289 289 289 288 288 288 288 288 288 288 288 288 287 287 287 287 286 286 286 285 285 285 285 285 285 285 285 285 285 285 285 285 285 285
290 290 289 289 289 289 289 289 289 289 289 288 288 288 288 288 288 288 288 288 287 287 287 286 286 285 285 285 285 285 285 285 285 285 285 285 285 285 285 285 285 284
290 290 289 289 289 289 289 289 289 289 288 288 288 288 288 288 288 288 288 287 287 287 286 286 285 285 285 285 285 285 285 285 285 285 285 285 285 285 284 284 284 284
290 289 289 289 289 289 289 289 289 288 288 288 288 288 288 288 288 288 287 287 287 286 286 285 285 285 284 284 284 284 284 284 284 284 284 284 284 284 284 284 284 283
290 289 289 289 289 289 289 288 288 288 288 288 288 287 287 287 287 287 287 287 286 286 285 285 284 284 284 284 284 284 284 284 284 284 284 284 284 284 284 284 283 283
290 289 289 289 289 289 289 288 288 288 288 288 287 287 287 287 287 287 287 286 286 285 285 284 284 284 284 284 284 284 284 284 284 284 284 284 284 284 284 283 283 282
290 289 289 289 289 289 288 288 288 288 288 287 287 287 287 287 287 286 286 286 286 285 284 284 283 283 283 284 284 284 284 284 284 284 284 284 284 284 283 283 282 282
290 289 289 289 289 289 288 288 288 288 287 287 287 287 287 286 286 286 286 286 285 284 284 283 283 283 283 283 283 284 284 284 284 284 284 284 284 283 283 282 282 282
289 289 289 289 289 288 288 288 288 288 287 287 287 287 287 286 286 286 286 285 285 284 283 283 283 283 283 283 283 283 283 284 284 283 283 283 283 283 282 282 282 281
289 289 289 289 289 288 288 288 288 288 287 287 287 287 287 286 286 286 286 285 285 284 283 282 282 283 283 283 283 283 283 283 283 283 283 283 283 282 282 282 281 281
289 289 289 289 289 288 288 288 288 288 287 287 287 287 287 286 286 286 286 285 284 283 282 282 282 282 283 283 283 283 283 283 283 283 283 283 282 282 282 281 281 280
289 289 289 289 289 288 288 288 288 288 287 287 287 287 287 286 286 286 285 285 284 283 282 282 282 282 282 283 283 283 283 282 283 282 282 282 282 282 281 281 280 280
289 289 289 289 289 288 288 288 288 288 287 287 287 287 287 286 286 285 285 285 284 283 282 282 282 282 282 282 282 282 282 282 282 282 282 282 281 281 281 280 280 279
289 289 289 289 289 288 288 288 288 288 287 287 287 287 287 286 286 285 285 284 283 282 282 281 282 282 282 282 282 282 282 282 282 282 282 281 281 281 280 280 279 279
289 290 289 289 288 288 288 288 288 288 287 287 287 287 287 286 286 285 285 284 283 282 282 281 281 282 282 282 282 282 282 282 282 281 281 281 281 280 280 279 279 279
290 290 289 289 288 288 288 288 288 287 287 287 287 287 287 286 286 285 285 284 282 282 281 281 281 281 282 282 282 282 281 281 281 281 281 281 280 280 279 279 279 278
290 290 290 289 288 288 288 288 287 287 287 287 287 286 286 286 286 285 284 283 282 281 281 281 281 281 282 282 281 281 281 281 281 281 281 280 280 279 279 279 279 278
290 290 289 289 288 288 288 287 287 287 287 287 286 286 286 286 285 285 284 283 282 281 281 281 281 281 281 281 281 281 281 281 281 280 280 279 279 279 279 279 278 278
290 290 289 289 288 288 288 287 287 287 287 287 286 286 286 286 285 285 284 283 281 281 281 281 281 281 281 281 281 280 280 280 280 279 279 279 279 279 279 278 277 276